Location: ??
(34.9170°N, 135.5016°E)
Time: 11:54:22
(UTC+00:00)

A-11 Canister half - Visible Passes

Search period start: 07 March 2021 00:00
Search period end: 17 March 2021 00:00
Orbit: 1516 x 1684 km, 47.2° (Epoch: 06 March)

Date Brightness Start Highest point End Pass type
(mag) Time Alt. Az. Time Alt. Az. Time Alt. Az.
07 Mar 11.3 20:47:40 10° S 20:54:36 21° SE 21:01:34 10° E visible
08 Mar 11.3 20:25:17 10° SSE 20:31:45 19° ESE 20:38:16 10° E visible
09 Mar 11.3 20:02:57 10° SSE 20:08:55 18° ESE 20:14:53 10° E visible
10 Mar 11.3 19:40:43 10° SSE 19:46:04 16° ESE 19:51:26 10° E visible
11 Mar 11.3 19:18:38 10° SSE 19:23:14 14° ESE 19:27:52 10° E visible
12 Mar 11.3 18:56:45 10° SE 19:00:24 12° ESE 19:04:04 10° E visible
13 Mar 11.4 18:35:20 10° SE 18:37:34 11° ESE 18:39:49 10° ESE visible
13 Mar 9.9 20:31:22 10° SSW 20:40:58 53° SE 20:50:43 10° ENE visible
14 Mar 10.0 20:08:35 10° SSW 20:18:04 50° SE 20:27:43 10° ENE visible
15 Mar 10.0 19:45:50 10° SSW 19:55:11 47° SE 20:04:41 10° ENE visible
16 Mar 10.0 19:23:06 10° SSW 19:32:17 44° SE 19:41:39 10° ENE visible
